This is the latest recevied weather packets stored in our database for station/object K0FJ-1. If no packets are shown the sender has not sent any weather packets the latest 10 day(s).
| Time | Temp. | Humidity | Pressure | Rain* | Wind** | Luminosity | Snow |
|---|---|---|---|---|---|---|---|
| 1787761503 | 27.22° C | 62% | 1023.5 hPa | 0 mm | - | - | - |
| 1787761203 | 27.22° C | 63% | 1023.4 hPa | 0 mm | - | - | - |
| 1787760903 | 26.67° C | 64% | 1023.3 hPa | 0 mm | - | - | - |
| 1787760603 | 26.67° C | 66% | 1023.1 hPa | 0 mm | - | - | - |
| 1787760303 | 26.67° C | 67% | 1022.9 hPa | 0 mm | - | - | - |
| 1787760003 | 26.11° C | 66% | 1022.7 hPa | 0 mm | - | - | - |
| 1787759703 | 26.11° C | 68% | 1022.6 hPa | 0 mm | - | - | - |
| 1787759403 | 25.56° C | 68% | 1022.8 hPa | 0 mm | - | - | - |
| 1787759103 | 25.56° C | 68% | 1022.9 hPa | 0 mm | - | - | - |
| 1787758803 | 25.56° C | 68% | 1022.9 hPa | 0 mm | - | - | - |
| 1787758503 | 25° C | 69% | 1022.9 hPa | 0 mm | - | - | - |
| 1787758203 | 25° C | 68% | 1022.9 hPa | 0 mm | - | - | - |
| 1787757903 | 24.44° C | 68% | 1022.9 hPa | 0 mm | - | - | - |
| 1787757603 | 24.44° C | 69% | 1022.8 hPa | 0 mm | - | - | - |
| 1787757303 | 23.89° C | 69% | 1023 hPa | 0 mm | - | - | - |
| 1787757003 | 23.89° C | 68% | 1023.1 hPa | 0 mm | - | - | - |
| 1787756703 | 23.89° C | 68% | 1023 hPa | 0 mm | - | - | - |
| 1787756403 | 23.89° C | 69% | 1022.8 hPa | 0 mm | - | - | - |
| 1787756103 | 23.89° C | 68% | 1022.6 hPa | 0 mm | - | - | - |
| 1787755803 | 23.89° C | 69% | 1022.4 hPa | 0 mm | - | - | - |
| 1787755503 | 23.33° C | 71% | 1022.4 hPa | 0 mm | - | - | - |
| 1787755203 | 23.33° C | 72% | 1022.8 hPa | 0 mm | - | - | - |
| 1787754903 | 23.33° C | 70% | 1023.3 hPa | 0 mm | - | - | - |
| 1787754603 | 22.78° C | 74% | 1023.4 hPa | 0 mm | - | - | - |
| 1787754303 | 22.22° C | 74% | 1023.4 hPa | 0 mm | - | - | - |
* Rain latest hour (hover to see other rain measurements)
** Current wind speed in m/s (hover to see current wind gust speed)